^^
Datos históricos de la estación: Murcia-Puente Tocinos
Diario Informe para Agosto 27, 2019 Unidades:  Métrico    Inglés   Ambas
Diario Semanal Mensual Anual Configurable
  Máximo: Mínimo: Media:
Temperatura: 30.3 °C 19.9 °C 24.3 °C
Punto de rocio: 22.0 °C 16.2 °C 19.4 °C
Humedad: 91% 48% 76%
Velocidad viento: 32.2km/h 0.0km/h 6.8km/h
Racha viento: 56.3km/h - -
Viento- - SSE
Presión: 1015.1 hPa 1011.2 hPa -
Precipitación: 15.9 mm    
Historical Graphs
 
 
Tabla de datos para Agosto 27, 2019
Hora Temperatura Punto de rocio Presión Viento Velocidad viento Racha viento Humedad Intensidad lluvia(por hora) Nubes
00:00 25.2 °C 21.7 °C 1013.5 hPa North 4.8 km/h 9.7 km/h 81% 0.0 mm CLR
00:05 25.2 °C 21.5 °C 1013.1 hPa North 4.8 km/h 9.7 km/h 80% 0.0 mm CLR
00:10 25.2 °C 21.7 °C 1013.1 hPa NNE 4.8 km/h 12.9 km/h 81% 0.0 mm CLR
00:15 25.1 °C 21.6 °C 1013.1 hPa NNE 4.8 km/h 11.3 km/h 81% 0.0 mm CLR
00:20 25.1 °C 21.6 °C 1013.2 hPa NNE 8.0 km/h 11.3 km/h 81% 0.0 mm CLR
00:25 25.0 °C 21.7 °C 1013.2 hPa NNE 8.0 km/h 14.5 km/h 82% 0.0 mm CLR
00:30 24.9 °C 21.6 °C 1013.2 hPa NNE 9.7 km/h 14.5 km/h 82% 0.0 mm CLR
00:35 24.9 °C 21.6 °C 1012.8 hPa NE 9.7 km/h 19.3 km/h 82% 0.0 mm CLR
00:40 24.8 °C 21.7 °C 1012.8 hPa NE 9.7 km/h 19.3 km/h 83% 0.0 mm RA
00:45 24.8 °C 21.9 °C 1012.8 hPa North 9.7 km/h 8.0 km/h 84% 0.3 mm RA
00:50 24.7 °C 21.8 °C 1012.8 hPa North 3.2 km/h 16.1 km/h 84% 0.0 mm
00:55 24.6 °C 21.9 °C 1012.8 hPa NNE 3.2 km/h 16.1 km/h 85% 0.2 mm RA
01:00 24.4 °C 21.9 °C 1012.8 hPa NNE 9.7 km/h 19.3 km/h 86% 0.0 mm RA
01:05 24.3 °C 22.0 °C 1012.4 hPa NNE 9.7 km/h 14.5 km/h 87% 0.0 mm
01:10 24.2 °C 21.9 °C 1012.4 hPa NNE 8.0 km/h 16.1 km/h 87% 0.0 mm
01:15 24.1 °C 21.8 °C 1012.4 hPa NE 8.0 km/h 22.5 km/h 87% 0.0 mm
01:20 24.1 °C 21.6 °C 1012.1 hPa NE 9.7 km/h 16.1 km/h 86% 0.0 mm
01:25 24.1 °C 21.6 °C 1012.1 hPa NE 9.7 km/h 14.5 km/h 86% 0.0 mm
01:30 24.1 °C 21.6 °C 1012.1 hPa NE 8.0 km/h 11.3 km/h 86% 0.0 mm
01:35 24.1 °C 21.6 °C 1011.9 hPa NE 8.0 km/h 11.3 km/h 86% 0.0 mm
01:40 24.1 °C 21.8 °C 1011.9 hPa NE 4.8 km/h 4.8 km/h 87% 0.0 mm
01:45 24.1 °C 21.8 °C 1011.9 hPa ENE 4.8 km/h   87% 0.0 mm
01:50 24.0 °C 21.7 °C 1012.4 hPa North 3.2 km/h 9.7 km/h 87% 0.0 mm
01:55 24.0 °C 21.7 °C 1012.4 hPa WNW 3.2 km/h 8.0 km/h 87% 0.0 mm
02:00 23.9 °C 21.6 °C 1012.4 hPa West 3.2 km/h 8.0 km/h 87% 0.0 mm
02:05 23.9 °C 21.6 °C 1012.4 hPa SW 3.2 km/h 8.0 km/h 87% 0.0 mm
02:10 24.0 °C 21.7 °C 1012.4 hPa SW 3.2 km/h 9.7 km/h 87% 0.0 mm
02:15 24.1 °C 21.8 °C 1012.4 hPa SW 3.2 km/h 9.7 km/h 87% 0.0 mm
02:20 24.2 °C 21.7 °C 1012.3 hPa WSW 4.8 km/h 8.0 km/h 86% 0.0 mm
02:25 24.2 °C 21.7 °C 1012.3 hPa WSW 4.8 km/h 6.4 km/h 86% 0.0 mm
02:30 24.3 °C 21.8 °C 1012.3 hPa WSW 3.2 km/h 3.2 km/h 86% 0.0 mm
02:35 24.4 °C 21.9 °C 1012.0 hPa SW 3.2 km/h 8.0 km/h 86% 0.0 mm
02:40 24.3 °C 21.8 °C 1012.0 hPa East 1.6 km/h 6.4 km/h 86% 0.0 mm
02:45 24.2 °C 21.7 °C 1012.0 hPa East 1.6 km/h 8.0 km/h 86% 0.0 mm
02:50 24.1 °C 21.6 °C 1011.8 hPa East 3.2 km/h 4.8 km/h 86% 0.0 mm
02:55 24.1 °C 21.8 °C 1011.8 hPa East 3.2 km/h 6.4 km/h 87% 0.0 mm
03:00 24.1 °C 21.8 °C 1011.8 hPa ESE 3.2 km/h 8.0 km/h 87% 0.0 mm
03:05 24.1 °C 21.8 °C 1012.0 hPa SE 3.2 km/h 8.0 km/h 87% 0.0 mm
03:10 24.0 °C 21.7 °C 1012.0 hPa South 3.2 km/h 8.0 km/h 87% 0.0 mm
03:15 23.9 °C 21.6 °C 1012.0 hPa South 3.2 km/h 3.2 km/h 87% 0.0 mm
03:20 23.9 °C 21.8 °C 1011.5 hPa Calm     88% 0.0 mm
03:25 23.9 °C 21.8 °C 1011.5 hPa Calm   8.0 km/h 88% 0.0 mm
03:30 24.0 °C 21.7 °C 1011.5 hPa West 3.2 km/h 8.0 km/h 87% 0.0 mm
03:35 24.0 °C 21.7 °C 1011.2 hPa West 3.2 km/h 4.8 km/h 87% 0.0 mm
03:40 23.9 °C 21.4 °C 1011.2 hPa Calm   3.2 km/h 86% 0.0 mm
03:45 24.0 °C 21.7 °C 1011.2 hPa Calm   11.3 km/h 87% 0.0 mm
03:50 23.9 °C 21.8 °C 1011.4 hPa SE 3.2 km/h 9.7 km/h 88% 0.0 mm
03:55 23.8 °C 21.9 °C 1011.4 hPa SE 3.2 km/h 11.3 km/h 89% 0.0 mm
04:00 23.8 °C 21.9 °C 1011.4 hPa SE 8.0 km/h 11.3 km/h 89% 0.0 mm
04:05 23.7 °C 21.8 °C 1011.6 hPa ESE 8.0 km/h 8.0 km/h 89% 0.0 mm
04:10 23.6 °C 21.7 °C 1011.6 hPa East 4.8 km/h 9.7 km/h 89% 0.0 mm
04:15 23.6 °C 21.9 °C 1011.6 hPa ESE 4.8 km/h 9.7 km/h 90% 0.0 mm
04:20 23.6 °C 21.7 °C 1011.9 hPa SE 3.2 km/h 8.0 km/h 89% 0.0 mm
04:25 23.6 °C 21.7 °C 1011.9 hPa SSE 3.2 km/h 8.0 km/h 89% 0.0 mm
04:30 23.6 °C 21.7 °C 1011.9 hPa SSE 3.2 km/h 8.0 km/h 89% 0.0 mm
04:35 23.7 °C 21.8 °C 1012.3 hPa SSE 3.2 km/h 9.7 km/h 89% 0.0 mm
04:40 23.8 °C 21.9 °C 1012.3 hPa South 8.0 km/h 11.3 km/h 89% 0.0 mm
04:45 23.8 °C 21.7 °C 1012.3 hPa SSE 6.9 km/h 11.1 km/h 88% 0.3 mm RA
04:50 23.8 °C 21.9 °C 1012.5 hPa South 8.0 km/h 14.5 km/h 89% 0.8 mm RA
04:55 23.8 °C 21.9 °C 1012.5 hPa West 7.6 km/h 7.6 km/h 89% 1.0 mm RA
05:00 23.8 °C 21.9 °C 1012.5 hPa WSW 8.0 km/h 9.7 km/h 89% 0.0 mm RA
05:05 23.8 °C 21.9 °C 1011.8 hPa NW 6.9 km/h 5.6 km/h 89% 1.0 mm CLR
05:10 23.8 °C 21.8 °C 1011.8 hPa NW 3.2 km/h 9.7 km/h 89% 0.0 mm
05:15 23.6 °C 21.9 °C 1011.8 hPa North 3.2 km/h 11.3 km/h 90% 0.0 mm
05:20 23.5 °C 21.8 °C 1011.7 hPa NE 3.2 km/h 4.8 km/h 90% 0.0 mm
05:25 23.5 °C 21.8 °C 1011.7 hPa NNW 3.2 km/h 9.7 km/h 90% 0.0 mm
05:30 23.5 °C 21.8 °C 1011.7 hPa WSW 4.8 km/h 11.3 km/h 90% 0.0 mm
05:35 23.4 °C 21.7 °C 1012.2 hPa SW 5.0 km/h 9.3 km/h 90% 1.0 mm CLR
05:40 23.4 °C 21.7 °C 1012.2 hPa SW 4.8 km/h 9.7 km/h 90% 0.0 mm
05:45 23.5 °C 21.6 °C 1012.2 hPa WSW 4.8 km/h 14.5 km/h 89% 0.0 mm
05:50 23.6 °C 21.7 °C 1012.0 hPa WSW 5.8 km/h 9.3 km/h 89% 0.2 mm CLR
05:55 23.7 °C 21.8 °C 1012.0 hPa WSW 4.8 km/h 11.3 km/h 89% 0.0 mm
06:00 23.7 °C 21.8 °C 1012.0 hPa WSW 8.0 km/h 9.7 km/h 89% 0.0 mm
06:05 23.7 °C 21.8 °C 1012.1 hPa West 8.0 km/h 8.0 km/h 89% 0.0 mm
06:10 23.7 °C 21.4 °C 1012.1 hPa WNW 3.2 km/h 12.9 km/h 87% 0.0 mm
06:15 23.6 °C 21.1 °C 1012.1 hPa WNW 3.2 km/h 14.5 km/h 86% 0.0 mm
06:20 23.4 °C 20.3 °C 1012.2 hPa WNW 9.7 km/h 19.3 km/h 83% 0.0 mm CLR
06:25 23.4 °C 20.2 °C 1012.2 hPa WNW 9.7 km/h 14.5 km/h 82% 0.0 mm CLR
06:30 23.3 °C 19.7 °C 1012.2 hPa West 8.0 km/h 9.7 km/h 80% 0.0 mm CLR
06:35 23.3 °C 19.7 °C 1012.6 hPa West 8.0 km/h 11.3 km/h 80% 0.0 mm CLR
06:40 23.3 °C 19.2 °C 1012.6 hPa WNW 4.8 km/h 17.7 km/h 78% 0.0 mm CLR
06:45 23.1 °C 18.4 °C 1012.6 hPa West 4.8 km/h 16.1 km/h 75% 0.0 mm CLR
06:50 23.1 °C 18.4 °C 1012.6 hPa West 9.7 km/h 11.3 km/h 75% 0.0 mm CLR
06:55 23.0 °C 18.6 °C 1012.6 hPa West 9.7 km/h 11.3 km/h 76% 0.0 mm CLR
07:00 23.0 °C 18.6 °C 1012.6 hPa West 4.8 km/h 6.4 km/h 76% 0.0 mm CLR
07:05 22.9 °C 18.4 °C 1012.7 hPa WSW 4.8 km/h 9.7 km/h 76% 0.0 mm CLR
07:10 22.9 °C 18.4 °C 1012.7 hPa SSW 4.8 km/h 11.3 km/h 76% 0.0 mm CLR
07:15 22.9 °C 18.0 °C 1012.7 hPa SSW 4.8 km/h 12.9 km/h 74% 0.0 mm CLR
07:20 22.9 °C 18.0 °C 1012.8 hPa SW 8.0 km/h 9.7 km/h 74% 0.0 mm CLR
07:25 22.9 °C 18.0 °C 1012.8 hPa SW 8.0 km/h 9.7 km/h 74% 0.0 mm CLR
07:30 23.0 °C 17.9 °C 1012.8 hPa SW 8.0 km/h 14.5 km/h 73% 0.0 mm CLR
07:35 22.9 °C 17.3 °C 1013.0 hPa SW 8.0 km/h 12.9 km/h 71% 0.0 mm CLR
07:40 23.0 °C 17.4 °C 1013.0 hPa WSW 8.0 km/h 16.1 km/h 71% 0.0 mm CLR
07:45 23.0 °C 17.4 °C 1013.0 hPa WSW 8.0 km/h 11.3 km/h 71% 0.0 mm CLR
07:50 23.0 °C 17.7 °C 1012.9 hPa West 4.8 km/h 4.8 km/h 72% 0.0 mm CLR
07:55 23.0 °C 17.7 °C 1012.9 hPa West 4.8 km/h 14.5 km/h 72% 0.0 mm CLR
08:00 23.0 °C 17.4 °C 1012.9 hPa WSW 8.0 km/h 14.5 km/h 71% 0.0 mm CLR
08:05 23.0 °C 17.4 °C 1012.9 hPa WSW 8.0 km/h 11.3 km/h 71% 0.0 mm CLR
08:10 23.0 °C 17.4 °C 1012.9 hPa WSW 4.8 km/h 11.3 km/h 71% 0.0 mm CLR
08:15 23.1 °C 17.8 °C 1012.9 hPa WSW 4.8 km/h 9.7 km/h 72% 0.0 mm CLR
08:20 23.1 °C 17.6 °C 1012.9 hPa WSW 6.9 km/h 9.5 km/h 71% 0.0 mm CLR
08:25 23.1 °C 17.6 °C 1012.9 hPa West 6.9 km/h 9.3 km/h 71% 0.0 mm CLR
08:30 23.2 °C 17.4 °C 1012.9 hPa WSW 8.0 km/h 14.5 km/h 70% 0.0 mm CLR
08:35 23.3 °C 17.5 °C 1013.0 hPa West 8.0 km/h 14.5 km/h 70% 0.0 mm CLR
08:40 23.3 °C 17.5 °C 1013.0 hPa West 8.0 km/h 12.9 km/h 70% 0.0 mm CLR
08:45 23.3 °C 17.5 °C 1013.0 hPa West 8.0 km/h 14.5 km/h 70% 0.0 mm CLR
08:50 23.2 °C 17.4 °C 1012.9 hPa WSW 8.0 km/h 9.7 km/h 70% 0.0 mm CLR
08:55 23.2 °C 17.4 °C 1012.9 hPa WSW 8.0 km/h 12.9 km/h 70% 0.0 mm CLR
09:00 23.2 °C 17.4 °C 1012.9 hPa WSW 8.0 km/h 14.5 km/h 70% 0.0 mm CLR
09:05 23.1 °C 17.3 °C 1012.6 hPa West 8.0 km/h 11.3 km/h 70% 0.0 mm CLR
09:10 23.1 °C 17.6 °C 1012.6 hPa West 4.8 km/h 8.0 km/h 71% 0.0 mm CLR
09:15 23.1 °C 17.3 °C 1012.6 hPa WSW 4.8 km/h 9.7 km/h 70% 0.0 mm CLR
09:20 23.2 °C 17.2 °C 1012.7 hPa SW 4.8 km/h 11.3 km/h 69% 0.0 mm CLR
09:25 23.3 °C 17.3 °C 1012.7 hPa SW 4.8 km/h 9.7 km/h 69% 0.0 mm CLR
09:30 23.4 °C 17.2 °C 1012.7 hPa SSW 8.0 km/h 9.7 km/h 68% 0.0 mm CLR
09:35 23.4 °C 16.9 °C 1013.1 hPa SW 8.0 km/h 11.3 km/h 67% 0.0 mm CLR
09:40 23.5 °C 17.0 °C 1013.1 hPa SSW 6.4 km/h 9.3 km/h 67% 0.0 mm CLR
09:45 23.6 °C 17.1 °C 1013.1 hPa SSW 8.0 km/h 14.5 km/h 67% 0.0 mm CLR
09:50 23.6 °C 17.1 °C 1012.9 hPa SSW 9.7 km/h 12.9 km/h 67% 0.0 mm CLR
09:55 23.7 °C 16.9 °C 1012.9 hPa SSW 9.7 km/h 14.5 km/h 66% 0.0 mm CLR
10:00 23.8 °C 17.3 °C 1012.9 hPa SSW 8.0 km/h 11.3 km/h 67% 0.0 mm CLR
10:05 24.1 °C 17.3 °C 1012.7 hPa SSW 8.0 km/h 14.5 km/h 66% 0.0 mm CLR
10:10 24.2 °C 17.2 °C 1012.7 hPa SSW 8.0 km/h 14.5 km/h 65% 0.0 mm CLR
10:15 24.3 °C 17.3 °C 1012.7 hPa SW 8.0 km/h 12.9 km/h 65% 0.0 mm CLR
10:20 24.5 °C 17.5 °C 1012.8 hPa WSW 6.9 km/h 7.4 km/h 65% 0.0 mm CLR
10:25 24.6 °C 17.6 °C 1012.8 hPa West 8.0 km/h 11.3 km/h 65% 0.0 mm CLR
10:30 24.7 °C 17.4 °C 1012.8 hPa WNW 4.8 km/h 11.3 km/h 64% 0.0 mm CLR
10:35 24.7 °C 17.4 °C 1013.1 hPa WNW 4.8 km/h 12.9 km/h 64% 0.0 mm CLR
10:40 24.8 °C 17.5 °C 1013.1 hPa SW 8.0 km/h 12.9 km/h 64% 0.0 mm CLR
10:45 24.9 °C 17.7 °C 1013.1 hPa SW 8.0 km/h 11.3 km/h 64% 0.0 mm CLR
10:50 25.2 °C 17.7 °C 1013.0 hPa WSW 8.0 km/h 11.3 km/h 63% 0.0 mm CLR
10:55 25.4 °C 17.9 °C 1013.0 hPa WSW 8.0 km/h 11.3 km/h 63% 0.0 mm CLR
11:00 25.7 °C 17.9 °C 1013.0 hPa WSW 8.0 km/h 16.1 km/h 62% 0.0 mm CLR
11:05 25.9 °C 17.8 °C 1013.0 hPa SW 8.0 km/h 14.5 km/h 61% 0.0 mm CLR
11:10 26.1 °C 17.9 °C 1013.0 hPa WSW 8.0 km/h 12.9 km/h 61% 0.0 mm CLR
11:15 26.2 °C 17.8 °C 1013.0 hPa WSW 8.0 km/h 12.9 km/h 60% 0.0 mm CLR
11:20 26.4 °C 18.0 °C 1013.2 hPa WSW 4.8 km/h 8.0 km/h 60% 0.0 mm CLR
11:25 26.7 °C 17.8 °C 1013.2 hPa WSW 4.8 km/h 11.3 km/h 58% 0.0 mm CLR
11:30 26.7 °C 18.0 °C 1013.2 hPa SW 4.8 km/h 14.5 km/h 59% 0.0 mm CLR
11:35 26.7 °C 18.0 °C 1013.2 hPa WSW 4.8 km/h 16.1 km/h 59% 0.0 mm CLR
11:40 26.8 °C 18.1 °C 1013.2 hPa West 8.0 km/h 11.3 km/h 59% 0.0 mm CLR
11:45 26.9 °C 18.2 °C 1013.2 hPa West 8.0 km/h 11.3 km/h 59% 0.0 mm CLR
11:50 27.2 °C 18.2 °C 1012.9 hPa SSW 8.0 km/h 16.1 km/h 58% 0.0 mm CLR
11:55 27.4 °C 18.4 °C 1012.9 hPa South 8.0 km/h 16.1 km/h 58% 0.0 mm CLR
12:00 27.4 °C 18.7 °C 1012.9 hPa SSW 9.7 km/h 16.1 km/h 59% 0.0 mm CLR
12:05 27.4 °C 18.4 °C 1012.6 hPa SSW 9.7 km/h 11.3 km/h 58% 0.0 mm CLR
12:10 27.6 °C 18.6 °C 1012.6 hPa SSW 8.0 km/h 12.9 km/h 58% 0.0 mm CLR
12:15 27.7 °C 18.4 °C 1012.6 hPa SW 8.0 km/h 9.7 km/h 57% 0.0 mm CLR
12:20 27.7 °C 18.7 °C 1012.6 hPa SW 8.0 km/h 9.7 km/h 58% 0.0 mm CLR
12:25 27.9 °C 18.6 °C 1012.6 hPa SW 8.0 km/h 9.7 km/h 57% 0.0 mm CLR
12:30 28.3 °C 18.7 °C 1012.6 hPa South 3.2 km/h 6.4 km/h 56% 0.0 mm CLR
12:35 28.7 °C 18.8 °C 1012.5 hPa SE 3.2 km/h 11.3 km/h 55% 0.0 mm CLR
12:40 28.8 °C 18.8 °C 1012.5 hPa WSW 3.2 km/h 9.7 km/h 55% 0.0 mm CLR
12:45 28.8 °C 18.6 °C 1012.5 hPa SSW 3.2 km/h 11.3 km/h 54% 0.0 mm CLR
12:50 28.9 °C 18.7 °C 1012.5 hPa SE 3.2 km/h 8.0 km/h 54% 0.0 mm CLR
12:55 29.2 °C 18.9 °C 1012.5 hPa ESE 3.2 km/h 4.8 km/h 54% 0.0 mm CLR
13:00 29.4 °C 18.8 °C 1012.5 hPa South 3.2 km/h 12.9 km/h 53% 0.0 mm CLR
13:05 29.4 °C 18.8 °C 1012.6 hPa South 3.2 km/h 9.7 km/h 53% 0.0 mm CLR
13:10 29.3 °C 18.7 °C 1012.6 hPa ESE 8.0 km/h 14.5 km/h 53% 0.0 mm CLR
13:15 29.3 °C 19.1 °C 1012.6 hPa ENE 8.0 km/h 11.3 km/h 54% 0.0 mm CLR
13:20 29.5 °C 18.6 °C 1012.5 hPa East 8.0 km/h 19.3 km/h 52% 0.0 mm CLR
13:25 29.4 °C 18.8 °C 1012.5 hPa SE 8.0 km/h 19.3 km/h 53% 0.0 mm CLR
13:30 29.3 °C 18.7 °C 1012.5 hPa SE 11.3 km/h 14.5 km/h 53% 0.0 mm CLR
13:35 29.3 °C 18.7 °C 1012.5 hPa SSE 11.3 km/h 11.3 km/h 53% 0.0 mm CLR
13:40 29.4 °C 18.8 °C 1012.5 hPa SSE 4.8 km/h 12.9 km/h 53% 0.0 mm CLR
13:45 29.4 °C 18.8 °C 1012.5 hPa SE 4.8 km/h 19.3 km/h 53% 0.0 mm CLR
13:50 29.3 °C 18.4 °C 1012.2 hPa ESE 9.7 km/h 16.1 km/h 52% 0.0 mm CLR
13:55 29.4 °C 18.5 °C 1012.2 hPa East 9.7 km/h 16.1 km/h 52% 0.0 mm CLR
14:00 29.6 °C 18.4 °C 1012.2 hPa East 9.7 km/h 16.1 km/h 51% 0.0 mm CLR
14:05 29.6 °C 18.4 °C 1012.1 hPa ENE 9.7 km/h 16.1 km/h 51% 0.0 mm CLR
14:10 29.6 °C 18.1 °C 1012.1 hPa NE 9.7 km/h 20.9 km/h 50% 0.0 mm CLR
14:15 29.6 °C 18.4 °C 1012.1 hPa NE 9.7 km/h 12.9 km/h 51% 0.0 mm CLR
14:20 29.8 °C 18.3 °C 1011.9 hPa ENE 8.0 km/h 12.9 km/h 50% 0.0 mm CLR
14:25 29.8 °C 17.9 °C 1011.9 hPa East 8.0 km/h 11.3 km/h 49% 0.0 mm CLR
14:30 29.9 °C 18.1 °C 1011.9 hPa East 8.0 km/h 11.3 km/h 49% 0.0 mm CLR
14:35 30.1 °C 17.9 °C 1011.7 hPa ENE 8.0 km/h 11.3 km/h 48% 0.0 mm CLR
14:40 30.3 °C 18.7 °C 1011.7 hPa ENE 8.0 km/h 14.5 km/h 50% 0.0 mm CLR
14:45 30.3 °C 19.1 °C 1011.7 hPa ENE 8.0 km/h 24.1 km/h 51% 0.0 mm CLR
14:50 30.2 °C 19.3 °C 1011.4 hPa ENE 11.3 km/h 24.1 km/h 52% 0.0 mm CLR
14:55 30.2 °C 19.3 °C 1011.4 hPa ENE 11.3 km/h 22.5 km/h 52% 0.0 mm CLR
15:00 30.2 °C 19.3 °C 1011.4 hPa ENE 12.9 km/h 25.7 km/h 52% 0.0 mm CLR
15:05 30.3 °C 19.1 °C 1011.6 hPa East 12.9 km/h 22.5 km/h 51% 0.0 mm CLR
15:10 30.1 °C 18.8 °C 1011.6 hPa East 11.3 km/h 24.1 km/h 51% 0.0 mm CLR
15:15 29.9 °C 18.7 °C 1011.6 hPa ENE 11.3 km/h 30.6 km/h 51% 0.0 mm CLR
15:20 29.8 °C 18.6 °C 1011.2 hPa ENE 14.5 km/h 33.8 km/h 51% 0.0 mm CLR
15:25 29.6 °C 18.7 °C 1011.2 hPa ENE 14.5 km/h 33.8 km/h 52% 0.0 mm CLR
15:30 29.4 °C 18.5 °C 1011.2 hPa ENE 14.5 km/h 27.4 km/h 52% 0.0 mm CLR
15:35 29.3 °C 18.7 °C 1011.2 hPa ENE 14.5 km/h 29.0 km/h 53% 0.0 mm CLR
15:40 29.1 °C 18.8 °C 1011.2 hPa ENE 14.5 km/h 27.4 km/h 54% 0.0 mm CLR
15:45 28.9 °C 18.7 °C 1011.2 hPa ENE 14.5 km/h 27.4 km/h 54% 0.0 mm CLR
15:50 28.8 °C 18.8 °C 1011.5 hPa ENE 14.5 km/h 29.0 km/h 55% 0.0 mm CLR
15:55 28.6 °C 19.3 °C 1011.5 hPa ENE 14.5 km/h 37.0 km/h 57% 0.0 mm CLR
16:00 28.2 °C 18.2 °C 1011.5 hPa NE 20.9 km/h 56.3 km/h 55% 0.0 mm CLR
16:05 26.4 °C 16.4 °C 1011.7 hPa NE 20.9 km/h 51.5 km/h 54% 0.0 mm CLR
16:10 25.6 °C 16.2 °C 1011.7 hPa NE 32.2 km/h 51.5 km/h 56% 0.0 mm CLR
16:15 24.7 °C 17.2 °C 1011.7 hPa NE 32.2 km/h 25.7 km/h 63% 0.8 mm RA
16:20 23.2 °C 17.2 °C 1013.0 hPa East 16.1 km/h 29.0 km/h 69% 2.1 mm RA
16:25 21.7 °C 17.3 °C 1013.0 hPa ESE 16.1 km/h 32.2 km/h 76% 0.0 mm RA
16:30 20.9 °C 17.6 °C 1013.0 hPa East 14.5 km/h 25.7 km/h 81% 0.0 mm RA
16:35 20.4 °C 17.6 °C 1013.0 hPa ESE 14.5 km/h 24.1 km/h 84% 0.0 mm
16:40 20.4 °C 18.2 °C 1013.0 hPa South 11.1 km/h 9.3 km/h 87% 4.6 mm RA
16:45 20.3 °C 18.1 °C 1013.0 hPa SE 11.3 km/h 19.3 km/h 87% 1.8 mm RA
16:50 20.4 °C 18.3 °C 1013.8 hPa South 12.9 km/h 20.9 km/h 88% 2.1 mm RA
16:55 20.3 °C 18.4 °C 1013.8 hPa South 12.9 km/h 19.3 km/h 89% 2.8 mm RA
17:00 20.6 °C 18.9 °C 1013.8 hPa SSE 12.9 km/h 22.5 km/h 90% 0.2 mm RA
17:05 20.4 °C 18.7 °C 1013.5 hPa SE 12.9 km/h 20.9 km/h 90% 3.6 mm RA
17:10 20.2 °C 18.7 °C 1013.5 hPa SSE 12.9 km/h 20.9 km/h 91% 0.0 mm RA
17:15 20.2 °C 18.7 °C 1013.5 hPa SSW 13.7 km/h 16.7 km/h 91% 12.3 mm RA
17:20 20.2 °C 18.7 °C 1013.6 hPa SSW 12.9 km/h 24.1 km/h 91% 1.0 mm RA
17:25 20.2 °C 18.7 °C 1013.6 hPa SSW 12.9 km/h 22.5 km/h 91% 0.8 mm RA
17:30 20.1 °C 18.4 °C 1013.6 hPa South 12.9 km/h 22.5 km/h 90% 0.6 mm RA
17:35 19.9 °C 18.1 °C 1012.9 hPa South 12.9 km/h 19.3 km/h 89% 0.2 mm RA
17:40 20.0 °C 18.1 °C 1012.9 hPa SSW 11.3 km/h 19.3 km/h 89% 0.0 mm RA
17:45 20.2 °C 18.1 °C 1012.9 hPa South 11.3 km/h 22.5 km/h 88% 0.0 mm
17:50 20.3 °C 18.4 °C 1012.9 hPa SSW 11.3 km/h 14.5 km/h 89% 0.0 mm
17:55 20.6 °C 18.9 °C 1012.9 hPa West 11.3 km/h 9.7 km/h 90% 0.0 mm RA
18:00 20.8 °C 18.9 °C 1012.9 hPa ENE 3.2 km/h 8.0 km/h 89% 0.0 mm RA
18:05 20.9 °C 18.8 °C 1012.9 hPa SE 3.2 km/h 9.7 km/h 88% 0.0 mm
18:10 21.1 °C 18.8 °C 1012.9 hPa West 3.2 km/h 9.7 km/h 87% 0.0 mm
18:15 21.3 °C 19.1 °C 1012.9 hPa NW 3.2 km/h 8.0 km/h 87% 0.0 mm
18:20 21.5 °C 19.3 °C 1013.0 hPa North 4.8 km/h 9.7 km/h 87% 0.0 mm
18:25 21.6 °C 19.2 °C 1013.0 hPa North 4.8 km/h 12.9 km/h 86% 0.0 mm
18:30 21.7 °C 19.3 °C 1013.0 hPa NNW 8.0 km/h 14.5 km/h 86% 0.0 mm
18:35 21.8 °C 19.6 °C 1012.8 hPa NNW 8.0 km/h 11.3 km/h 87% 0.0 mm
18:40 21.9 °C 19.4 °C 1012.8 hPa NNW 8.0 km/h 11.3 km/h 86% 0.0 mm
18:45 21.9 °C 19.3 °C 1012.8 hPa NNW 8.0 km/h 8.0 km/h 85% 0.0 mm
18:50 22.1 °C 19.4 °C 1012.9 hPa NW 3.2 km/h 9.7 km/h 85% 0.0 mm
18:55 22.2 °C 19.5 °C 1012.9 hPa NW 3.2 km/h 9.7 km/h 85% 0.0 mm CLR
19:00 22.2 °C 19.4 °C 1012.9 hPa WNW 4.8 km/h 8.0 km/h 84% 0.0 mm CLR
19:05 22.2 °C 19.2 °C 1012.8 hPa WNW 4.8 km/h 8.0 km/h 83% 0.0 mm CLR
19:10 22.3 °C 19.1 °C 1012.8 hPa West 3.2 km/h 9.7 km/h 82% 0.0 mm CLR
19:15 22.3 °C 18.9 °C 1012.8 hPa West 3.2 km/h 9.7 km/h 81% 0.0 mm CLR
19:20 22.4 °C 19.2 °C 1013.1 hPa WSW 3.2 km/h 6.4 km/h 82% 0.0 mm CLR
19:25 22.4 °C 19.2 °C 1013.1 hPa SW 3.2 km/h 4.8 km/h 82% 0.0 mm CLR
19:30 22.6 °C 19.1 °C 1013.1 hPa Calm   8.0 km/h 81% 0.0 mm CLR
19:35 22.6 °C 19.0 °C 1013.0 hPa Calm   11.3 km/h 80% 0.0 mm CLR
19:40 22.7 °C 19.3 °C 1013.0 hPa South 4.8 km/h 9.7 km/h 81% 0.0 mm CLR
19:45 22.8 °C 19.4 °C 1013.0 hPa SSW 4.8 km/h 1.6 km/h 81% 0.0 mm CLR
19:50 22.9 °C 19.6 °C 1012.9 hPa Calm     81% 0.0 mm CLR
19:55 23.2 °C 19.7 °C 1012.9 hPa Calm     81% 0.0 mm CLR
20:00 23.3 °C 19.6 °C 1012.9 hPa Calm     80% 0.0 mm CLR
20:05 23.3 °C 19.5 °C 1013.2 hPa Calm   9.7 km/h 79% 0.0 mm CLR
20:10 23.4 °C 19.8 °C 1013.2 hPa NE 3.2 km/h 9.7 km/h 80% 0.0 mm CLR
20:15 23.3 °C 19.7 °C 1013.2 hPa East 3.2 km/h 8.0 km/h 80% 0.0 mm CLR
20:20 23.3 °C 19.8 °C 1013.3 hPa ESE 3.2 km/h 8.0 km/h 81% 0.0 mm CLR
20:25 23.2 °C 19.8 °C 1013.3 hPa SE 3.2 km/h 8.0 km/h 81% 0.0 mm CLR
20:30 23.1 °C 19.7 °C 1013.3 hPa SE 4.8 km/h 8.0 km/h 81% 0.0 mm CLR
20:35 22.9 °C 19.7 °C 1013.3 hPa SE 4.8 km/h 11.3 km/h 82% 0.0 mm CLR
20:40 22.8 °C 19.6 °C 1013.3 hPa ESE 8.0 km/h 9.7 km/h 82% 0.0 mm CLR
20:45 22.8 °C 19.8 °C 1013.3 hPa ESE 8.0 km/h 9.7 km/h 83% 0.0 mm CLR
20:50 22.8 °C 19.7 °C 1013.4 hPa ESE 4.8 km/h 9.7 km/h 83% 0.0 mm CLR
20:55 22.7 °C 19.7 °C 1013.4 hPa ESE 4.8 km/h 9.7 km/h 83% 0.0 mm CLR
21:00 22.7 °C 19.7 °C 1013.4 hPa ESE 4.8 km/h 8.0 km/h 83% 0.0 mm CLR
21:05 22.7 °C 19.4 °C 1013.6 hPa ESE 4.8 km/h 8.0 km/h 82% 0.0 mm CLR
21:10 22.7 °C 19.4 °C 1013.6 hPa East 3.2 km/h 8.0 km/h 82% 0.0 mm CLR
21:15 22.7 °C 19.4 °C 1013.6 hPa ENE 3.2 km/h 9.7 km/h 82% 0.0 mm CLR
21:20 22.7 °C 19.4 °C 1013.7 hPa East 4.8 km/h 11.3 km/h 82% 0.0 mm CLR
21:25 22.7 °C 19.7 °C 1013.7 hPa East 4.8 km/h 8.0 km/h 83% 0.0 mm CLR
21:30 22.6 °C 19.4 °C 1013.7 hPa East 4.8 km/h 8.0 km/h 82% 0.0 mm CLR
21:35 22.6 °C 19.4 °C 1014.1 hPa ENE 4.8 km/h 11.3 km/h 82% 0.0 mm CLR
21:40 22.5 °C 19.3 °C 1014.1 hPa NE 8.0 km/h 12.9 km/h 82% 0.0 mm CLR
21:45 22.4 °C 19.2 °C 1014.1 hPa NE 8.0 km/h 16.1 km/h 82% 0.0 mm CLR
21:50 22.4 °C 19.2 °C 1014.5 hPa NE 9.7 km/h 14.5 km/h 82% 0.0 mm CLR
21:55 22.3 °C 19.3 °C 1014.5 hPa NNE 9.7 km/h 12.9 km/h 83% 0.0 mm CLR
22:00 22.2 °C 19.4 °C 1014.5 hPa NE 8.0 km/h 14.5 km/h 84% 0.0 mm CLR
22:05 22.1 °C 19.3 °C 1014.7 hPa NE 8.0 km/h 11.3 km/h 84% 0.0 mm CLR
22:10 22.1 °C 19.3 °C 1014.7 hPa NE 8.0 km/h 12.9 km/h 84% 0.0 mm CLR
22:15 22.1 °C 19.3 °C 1014.7 hPa East 8.0 km/h 11.3 km/h 84% 0.0 mm CLR
22:20 22.1 °C 19.1 °C 1014.7 hPa ESE 8.0 km/h 9.7 km/h 83% 0.0 mm CLR
22:25 22.1 °C 19.1 °C 1014.7 hPa ESE 8.0 km/h 11.3 km/h 83% 0.0 mm CLR
22:30 22.1 °C 18.9 °C 1014.7 hPa ESE 4.8 km/h 9.7 km/h 82% 0.0 mm CLR
22:35 22.2 °C 18.8 °C 1014.9 hPa ESE 4.8 km/h 8.0 km/h 81% 0.0 mm CLR
22:40 22.3 °C 18.9 °C 1014.9 hPa ESE 3.2 km/h 4.8 km/h 81% 0.0 mm CLR
22:45 22.3 °C 19.1 °C 1014.9 hPa ENE 3.2 km/h   82% 0.0 mm CLR
22:50 22.3 °C 19.1 °C 1014.9 hPa Calm     82% 0.0 mm CLR
22:55 22.3 °C 19.1 °C 1014.9 hPa Calm     82% 0.0 mm CLR
23:00 22.2 °C 19.0 °C 1014.9 hPa Calm     82% 0.0 mm CLR
23:05 22.2 °C 19.0 °C 1014.9 hPa Calm     82% 0.0 mm CLR
23:10 22.2 °C 19.0 °C 1014.9 hPa Calm     82% 0.0 mm CLR
23:15 22.1 °C 18.7 °C 1014.9 hPa Calm     81% 0.0 mm CLR
23:20 22.1 °C 18.7 °C 1015.0 hPa Calm     81% 0.0 mm CLR
23:25 22.1 °C 18.7 °C 1015.0 hPa Calm     81% 0.0 mm CLR
23:30 22.1 °C 19.1 °C 1015.0 hPa Calm   8.0 km/h 83% 0.0 mm CLR
23:35 22.0 °C 19.0 °C 1015.1 hPa Calm   7.4 km/h 83% 0.0 mm CLR
23:40 22.0 °C 18.6 °C 1015.1 hPa SSW 3.2 km/h 8.0 km/h 81% 0.0 mm CLR
23:45 22.1 °C 19.1 °C 1015.1 hPa South 3.2 km/h 6.4 km/h 83% 0.0 mm CLR
23:50 22.1 °C 18.7 °C 1015.1 hPa East 3.2 km/h 8.0 km/h 81% 0.0 mm CLR
23:55 22.1 °C 18.7 °C 1015.1 hPa NE 3.2 km/h 4.8 km/h 81% 0.0 mm CLR
Murcia-Puente Tocinos, España
Compliments of Weather Underground - 2.75 mb

La estación de MeteoMurcia.com, publica sus datos en los siguientes proyectos:

Weather Underground PWS IMURCIAP2 Meteoclimatic www.awekas.at

W3Counter
Web Analytics